Temperature
20 19 19 19 19 19 18 18 18 18 18 18 17 17 17 17 17 17 17 17 16 16 16 16 16 16 16 16 16 16 16 16 16 16 16 16 16 16 16 16 16 16 16
19 19 19 19 19 18 18 18 18 18 17 17 17 17 17 17 17 17 17 16 16 16 16 16 16 16 16 16 16 16 16 16 16 16 16 16 16 16 16 16 16 15 15
19 19 18 18 18 18 18 18 18 17 17 17 17 17 16 16 16 16 16 16 16 16 16 16 16 16 16 15 15 15 15 15 15 15 15 15 15 15 15 15 15 15 15
19 18 18 18 18 18 18 17 18 17 17 17 16 16 16 16 16 16 16 16 16 16 16 15 15 15 15 15 15 15 15 15 15 15 15 15 15 15 15 15 15 15 15
18 18 18 18 17 17 17 17 17 17 17 17 16 16 16 16 16 16 16 16 16 15 15 15 15 15 15 15 15 15 15 15 15 14 14 14 14 14 15 14 14 14 15
18 18 17 17 17 17 17 17 17 17 16 16 16 16 16 16 16 16 15 15 15 15 15 15 15 15 15 15 15 14 14 14 14 14 14 14 14 14 14 14 14 14 14
18 17 17 17 17 17 16 16 16 16 16 16 16 16 15 15 15 15 15 15 15 15 14 14 14 14 14 14 14 14 14 14 14 14 14 14 13 13 13 13 13 13 13
17 17 17 16 16 16 16 16 16 16 16 15 15 15 15 15 15 15 15 15 15 14 14 14 14 14 14 14 14 14 14 14 14 13 13 13 13 13 13 13 13 13 13
17 17 17 16 16 16 16 16 16 15 15 15 15 15 15 15 15 15 15 15 14 14 14 14 14 14 14 14 14 13 13 13 13 13 13 13 13 13 13 13 13 12 13
17 16 16 16 16 16 15 15 15 15 15 15 15 15 15 15 15 15 15 14 14 14 14 14 14 14 14 13 13 13 13 13 13 13 13 13 13 13 13 13 13 12 12
16 16 16 16 15 15 15 15 15 15 15 14 14 14 15 15 14 15 14 14 14 14 13 13 13 13 13 13 13 13 13 13 13 13 13 13 13 13 13 12 13 12 12
16 16 16 15 15 15 15 15 15 15 14 14 14 14 14 14 14 14 14 14 14 13 13 13 13 13 13 13 13 13 13 13 13 12 12 12 12 12 12 12 12 12 12
16 15 15 15 15 15 15 15 15 14 14 14 14 14 14 14 14 14 14 14 13 13 13 13 13 13 13 13 13 13 13 12 12 12 12 12 12 12 12 12 12 12 12
15 15 15 15 15 15 14 14 14 14 14 14 14 13 13 13 13 13 13 13 13 13 13 13 13 13 12 12 13 13 12 12 12 12 12 12 12 12 12 12 11 11 11
15 15 14 14 14 14 14 14 14 14 14 14 13 13 13 13 13 13 13 13 13 13 12 12 12 12 12 12 12 12 12 12 12 12 12 12 11 11 11 11 11 11 11
14 14 14 14 14 14 14 14 14 14 13 13 13 13 13 13 13 13 13 13 13 12 12 12 12 12 12 12 12 12 12 12 12 12 11 11 11 11 11 11 11 11 11
14 14 14 14 14 14 13 13 13 13 13 13 13 13 13 13 13 12 12 12 12 12 12 11 11 11 11 11 11 11 11 11 11 11 11 11 11 11 11 11 11 11 11
13 13 13 13 13 13 13 13 13 13 13 13 13 13 13 12 12 12 12 12 12 11 11 11 11 11 11 11 11 11 11 11 11 11 11 11 11 11 11 11 11 11 10
13 13 13 13 13 13 13 13 13 13 13 13 13 12 12 12 12 12 12 11 11 11 11 11 11 11 11 11 11 11 11 11 11 11 11 11 11 11 11 11 11 10 10
13 13 13 13 13 13 13 13 13 13 13 13 12 12 12 12 12 11 11 11 11 11 10 10 10 10 10 10 10 10 10 10 10 10 10 10 10 10 10 10 10 10 10
13 13 13 13 13 13 13 13 12 12 12 12 12 12 12 11 11 11 11 11 11 10 10 10 10 10 10 10 10 10 10 10 10 10 10 10 10 10 10 10 10 10 10
13 13 13 13 13 12 12 12 12 12 12 12 12 12 11 11 11 10 10 10 10 10 10 10 10 10 9 9 9 9 9 9 9 9 10 10 10 10 10 10 10 10 10
12 12 12 12 12 12 12 12 12 12 12 11 11 11 11 11 10 10 10 10 10 10 9 9 9 9 9 9 9 9 9 9 9 9 9 9 9 9 9 9 10 10 10
12 12 12 12 12 12 12 11 11 11 11 11 11 11 10 10 10 10 10 9 9 9 9 9 9 9 9 9 9 9 9 9 9 9 9 9 9 9 9 9 9 9 9
12 12 12 12 12 11 11 11 11 11 11 11 10 10 10 10 10 10 9 9 9 9 9 9 8 8 8 8 8 8 8 8 9 9 9 9 9 9 9 9 9 9 9
12 12 11 11 11 11 11 11 11 10 10 10 10 10 9 9 9 9 9 9 9 8 8 8 8 8 8 8 8 8 8 8 8 8 8 9 9 9 9 9 9 9 9
Wind_Speed
6 5 4 4 3 3 2 2 1 1 1 1 2 2 2 2 2 3 3 3 3 4 3 3 3 3 3 4 3 3 3 3 3 3 2 1 2 3 3 3 6 6 7
5 4 3 3 3 3 3 2 2 2 2 2 2 3 4 3 2 3 4 4 4 3 3 3 3 3 3 3 4 4 3 3 3 4 3 3 4 4 4 4 5 6 5
5 5 4 4 3 3 3 3 2 2 3 3 3 3 4 3 3 4 4 4 4 3 3 3 4 3 4 4 4 4 3 3 3 4 4 3 3 3 2 3 4 4 6
5 5 4 3 3 3 2 2 2 3 3 3 3 4 4 3 3 3 4 5 4 4 3 3 4 3 4 5 4 3 3 3 3 4 4 3 3 2 2 3 3 2 4
4 4 3 3 2 2 2 2 2 3 3 2 3 4 4 4 3 2 3 5 4 4 4 4 4 3 3 3 4 3 3 3 3 4 4 3 2 2 3 3 3 3 3
4 3 3 2 2 1 2 2 2 2 3 2 3 3 4 4 3 2 3 4 3 3 4 4 4 3 3 3 3 4 4 4 4 4 4 3 3 3 3 4 3 4 4
4 3 3 2 2 2 3 2 2 2 2 3 3 3 3 2 2 2 3 3 3 3 3 4 5 4 2 2 4 5 5 6 6 5 5 5 4 4 4 4 4 5 6
3 3 3 2 2 2 2 2 2 2 3 3 3 3 3 3 2 2 4 4 3 3 3 3 3 3 4 3 4 4 4 4 6 5 5 6 6 4 5 6 6 6 6
2 2 1 2 2 2 3 3 3 3 3 4 3 3 2 2 1 1 3 2 2 3 3 3 3 3 3 4 3 4 4 4 5 6 7 7 8 8 7 5 5 5 6
1 1 1 2 2 3 3 3 3 3 4 4 4 3 3 2 3 2 2 3 3 3 2 2 2 2 3 3 3 4 5 5 5 5 6 7 7 8 8 6 5 5 5
1 2 2 2 3 3 2 2 3 3 4 4 4 4 3 4 4 4 3 3 3 4 3 3 2 2 4 5 5 5 7 7 6 6 6 5 5 4 4 5 5 5 5
1 1 2 2 3 2 2 2 3 3 4 4 4 4 3 3 3 3 4 4 4 4 4 3 2 3 5 7 6 8 9 7 6 5 5 4 4 4 3 4 5 5 4
1 2 2 2 2 2 3 3 3 3 4 3 3 3 3 2 2 3 4 5 5 4 5 5 5 7 6 6 8 9 7 5 4 5 5 5 3 3 3 3 3 3 4
2 2 2 2 3 3 3 2 2 2 3 3 4 4 3 2 1 1 2 3 4 5 4 6 7 8 7 7 6 5 5 4 4 4 4 4 3 2 3 3 2 3 4
2 2 3 3 3 2 2 2 2 2 2 3 4 4 3 3 3 3 3 3 4 4 5 5 5 4 4 4 4 4 4 3 4 5 5 4 3 3 3 3 3 3 4
2 3 3 3 2 1 1 2 3 2 2 2 2 3 2 3 4 4 4 5 6 5 4 5 5 4 4 4 4 4 4 4 4 4 4 4 4 3 3 3 3 4 4
3 3 3 3 2 2 2 2 2 2 2 2 2 3 4 4 4 5 6 6 6 4 4 5 4 4 4 4 4 4 4 4 4 4 4 4 4 4 3 3 3 4 4
4 3 3 3 3 3 3 3 3 2 1 2 2 4 5 5 5 6 5 4 4 3 4 4 4 4 4 4 4 4 4 4 4 4 4 4 3 3 4 4 3 4 3
5 4 3 3 3 3 3 3 3 3 2 1 1 1 4 5 5 6 4 3 4 4 4 4 4 4 4 4 4 4 4 4 4 4 3 3 3 3 3 3 3 4 4
5 4 3 3 4 3 3 3 3 3 2 2 1 0 0 2 3 3 3 3 3 3 3 3 4 4 4 4 4 4 4 4 3 3 3 3 3 3 3 4 4 3 4
4 3 4 4 4 3 3 2 2 2 3 2 1 1 0 2 3 3 2 2 3 3 3 3 3 4 4 3 4 5 6 4 3 3 4 3 3 4 3 3 3 3 3
5 4 3 3 3 2 2 3 3 3 3 3 2 0 2 2 2 2 3 3 3 2 2 3 3 4 4 4 3 4 5 5 5 4 4 4 4 4 3 3 3 2 2
5 5 3 2 2 2 2 3 3 3 3 3 2 1 1 2 2 2 2 3 3 2 2 2 3 4 3 4 4 3 4 5 5 5 4 4 4 4 3 3 3 2 2
5 4 4 2 2 2 3 3 3 3 3 3 3 2 2 2 2 2 2 3 3 3 2 2 3 4 4 4 4 4 4 5 6 5 5 5 4 4 3 3 3 1 1
4 4 3 2 2 3 3 3 3 3 3 3 3 2 3 3 3 2 2 2 3 4 4 3 2 3 4 4 4 4 5 6 6 7 5 4 4 4 3 3 2 1 1
4 3 3 2 2 2 3 3 2 3 3 3 3 2 2 3 3 3 2 2 3 3 4 3 3 4 4 3 3 4 5 5 6 8 6 4 4 4 4 3 3 2 2
Wind_Direction
175 180 187 183 192 202 203 207 240 265 285 306 290 287 274 262 260 266 279 272 265 272 277 272 275 287 293 294 296 284 268 259 268 285 289 282 256 261 233 228 247 235 231
174 178 190 189 192 200 213 212 220 259 266 263 272 279 273 271 277 278 279 283 275 273 278 281 276 278 274 281 286 282 277 276 270 280 272 262 258 243 234 240 257 259 242
176 183 193 200 198 206 221 217 213 231 250 261 263 274 275 277 279 277 279 282 285 287 286 282 279 282 275 275 269 270 272 274 254 261 268 262 267 266 251 257 267 271 270
179 185 188 199 201 209 220 227 223 227 232 253 269 277 277 272 275 287 298 292 287 286 288 282 270 264 264 273 268 267 277 283 280 272 272 272 268 271 263 259 268 268 276
168 179 186 192 191 208 225 243 246 251 248 252 273 282 285 278 289 317 297 288 295 298 299 288 274 262 264 271 273 276 276 272 276 273 270 277 281 303 299 285 284 274 267
162 165 159 172 185 202 232 240 250 260 276 268 269 277 288 295 323 330 306 299 293 287 291 293 276 263 264 260 275 276 273 270 280 284 282 283 283 289 293 289 290 292 281
163 163 160 180 198 225 249 235 252 266 278 275 273 276 271 290 311 296 304 289 282 279 282 284 292 294 278 251 258 259 256 256 254 263 274 281 283 288 288 286 285 280 274
172 183 180 197 212 232 255 251 253 262 262 261 262 266 272 283 298 294 302 277 280 279 279 282 287 285 293 287 270 264 255 260 258 253 253 263 271 278 272 272 272 273 269
191 194 195 218 231 243 255 262 264 261 262 264 258 253 258 275 265 278 302 290 283 288 290 291 284 272 284 292 285 280 272 267 270 268 256 251 252 256 257 267 270 270 275
216 246 238 238 246 254 260 258 264 267 263 265 266 258 247 241 221 230 262 288 286 288 277 267 270 271 286 294 275 278 277 280 284 278 267 259 251 250 246 238 251 265 276
220 238 247 253 253 247 255 255 255 262 268 267 268 259 239 229 215 218 238 273 286 289 281 278 270 249 265 269 263 265 269 282 288 276 265 257 251 244 230 230 233 245 260
301 280 281 282 282 275 258 256 249 249 259 262 262 262 241 221 208 219 232 259 279 288 290 288 292 294 285 271 261 259 270 279 277 276 275 268 261 257 249 241 230 233 245
298 287 288 280 273 274 258 257 259 248 261 271 270 268 267 249 223 221 243 264 276 278 286 294 289 281 285 274 253 253 261 266 270 274 277 274 262 261 262 258 249 245 256
279 273 265 259 260 256 262 269 274 278 283 294 297 288 284 272 285 291 276 280 289 289 299 301 285 270 267 267 270 254 246 254 260 269 277 277 267 255 251 245 246 247 257
282 274 268 267 268 257 278 301 283 289 268 267 287 296 292 289 288 274 268 276 283 290 295 286 279 279 271 266 263 260 250 248 255 260 268 273 265 260 260 259 252 259 258
277 283 284 277 276 269 261 325 341 266 227 222 251 287 299 266 261 260 269 274 275 278 280 279 284 287 290 289 286 275 261 261 259 256 260 261 252 251 257 260 251 246 258
279 282 281 282 277 271 270 270 287 298 277 277 262 258 259 276 283 272 278 285 274 261 264 279 290 294 296 294 292 293 287 283 281 274 268 267 264 257 254 254 248 246 248
272 266 272 276 277 275 273 271 265 268 278 289 269 251 249 257 269 270 281 302 291 266 270 282 289 292 294 297 297 296 295 292 286 283 283 278 275 266 261 258 252 252 250
268 262 261 272 271 271 265 268 275 283 291 286 239 259 255 268 275 268 257 273 287 293 297 298 299 302 300 300 303 297 295 292 290 292 294 293 287 281 271 261 245 236 236
263 250 258 274 274 273 275 286 300 306 307 306 307 8 55 314 289 270 246 259 278 291 294 296 301 303 304 304 304 300 298 300 301 298 296 293 289 283 276 271 261 246 234
285 261 225 256 272 277 282 293 306 313 312 308 311 84 122 280 293 312 308 280 278 287 299 305 305 307 309 314 320 316 309 304 303 297 293 292 290 287 284 269 259 255 248
288 282 259 255 262 265 277 284 290 291 291 300 317 223 218 273 301 307 307 310 299 298 312 319 319 321 322 323 323 323 319 316 308 299 292 286 282 277 273 261 253 256 246
283 289 290 289 272 272 271 270 275 283 291 302 311 307 272 280 291 307 319 324 319 314 319 323 320 320 331 343 343 334 325 317 307 306 306 300 296 292 287 276 267 258 241
282 286 289 300 301 301 296 297 298 301 310 321 319 321 314 298 299 318 322 329 328 325 317 309 312 325 340 348 349 353 348 333 319 308 303 296 293 290 286 278 275 269 250
282 284 287 297 305 303 302 303 316 328 325 319 318 327 331 327 324 333 331 326 318 319 317 314 317 331 341 349 347 346 342 337 335 325 307 297 295 293 291 285 272 245 239
292 298 300 304 305 316 313 313 327 320 309 317 320 324 323 316 324 332 326 327 325 325 323 327 342 354 344 350 351 351 353 345 335 326 308 289 290 294 297 288 281 252 226
Height
1507 1508 1510 1510 1510 1511 1512 1513 1514 1514 1515 1515 1514 1514 1513 1513 1512 1512 1511 1511 1510 1510 1510 1509 1509 1508 1508 1508 1508 1508 1508 1508 1508 1507 1508 1508 1508 1507 1506 1506 1505 1505 1504
1505 1506 1507 1508 1508 1509 1509 1510 1511 1512 1512 1512 1512 1511 1511 1510 1510 1509 1509 1508 1508 1508 1508 1507 1506 1506 1505 1504 1505 1505 1505 1505 1505 1504 1504 1504 1504 1503 1503 1502 1502 1501 1500
1503 1504 1505 1505 1505 1506 1506 1507 1508 1508 1509 1509 1509 1509 1508 1508 1507 1507 1506 1506 1506 1505 1505 1504 1503 1503 1502 1501 1501 1501 1501 1501 1501 1501 1500 1500 1500 1500 1499 1499 1498 1498 1497
1501 1502 1502 1503 1503 1504 1504 1504 1504 1505 1505 1505 1506 1506 1506 1505 1505 1504 1504 1503 1503 1502 1501 1500 1499 1499 1499 1498 1498 1498 1498 1497 1498 1497 1497 1497 1497 1496 1496 1495 1494 1494 1493
1499 1500 1500 1501 1501 1501 1501 1502 1502 1502 1502 1502 1503 1503 1503 1503 1502 1501 1500 1500 1499 1498 1498 1497 1496 1496 1495 1494 1494 1494 1494 1494 1494 1494 1493 1493 1493 1493 1492 1492 1491 1490 1489
1497 1497 1498 1499 1499 1499 1499 1499 1499 1499 1499 1499 1500 1499 1499 1500 1499 1498 1497 1497 1496 1495 1494 1493 1493 1493 1492 1491 1490 1490 1490 1490 1490 1490 1489 1489 1489 1489 1488 1488 1487 1486 1485
1495 1495 1496 1496 1496 1497 1497 1497 1496 1496 1496 1497 1497 1497 1496 1496 1495 1495 1494 1493 1492 1491 1490 1490 1490 1489 1488 1488 1487 1486 1487 1487 1487 1487 1486 1485 1485 1484 1484 1483 1483 1482 1481
1493 1494 1494 1494 1494 1495 1495 1494 1494 1494 1494 1494 1494 1493 1493 1492 1492 1492 1491 1490 1489 1488 1488 1488 1487 1486 1486 1485 1484 1483 1482 1482 1483 1482 1482 1481 1481 1480 1480 1480 1479 1478 1477
1492 1492 1492 1492 1492 1492 1492 1491 1491 1491 1491 1491 1491 1490 1489 1489 1488 1488 1488 1487 1486 1485 1485 1485 1484 1483 1483 1482 1481 1480 1479 1479 1478 1478 1478 1477 1476 1476 1476 1476 1475 1474 1473
1490 1490 1490 1490 1489 1489 1489 1489 1489 1488 1488 1488 1488 1487 1486 1485 1485 1485 1485 1484 1483 1482 1482 1482 1481 1480 1480 1479 1478 1477 1475 1475 1474 1474 1473 1472 1472 1471 1471 1471 1470 1470 1469
1488 1488 1488 1488 1487 1487 1487 1486 1486 1486 1486 1485 1485 1484 1483 1483 1482 1482 1482 1481 1480 1479 1479 1478 1478 1477 1476 1475 1474 1473 1472 1471 1470 1469 1468 1468 1467 1467 1466 1466 1466 1466 1465
1486 1486 1486 1485 1485 1485 1484 1484 1483 1483 1483 1482 1482 1482 1481 1480 1480 1479 1479 1478 1477 1476 1475 1475 1474 1473 1472 1471 1470 1470 1469 1468 1467 1466 1465 1464 1463 1462 1462 1461 1461 1461 1461
1484 1484 1483 1483 1483 1482 1482 1481 1481 1481 1481 1480 1480 1479 1478 1477 1477 1476 1476 1475 1474 1473 1472 1471 1470 1469 1468 1467 1467 1466 1465 1464 1463 1462 1461 1460 1459 1458 1458 1458 1457 1456 1456
1482 1481 1481 1480 1480 1480 1479 1479 1479 1478 1478 1478 1477 1476 1475 1475 1474 1473 1472 1471 1470 1470 1469 1468 1467 1466 1465 1464 1463 1462 1461 1460 1459 1458 1457 1456 1456 1455 1454 1454 1453 1452 1452
1479 1479 1479 1478 1478 1477 1477 1476 1476 1475 1475 1475 1474 1473 1472 1471 1471 1470 1469 1468 1467 1466 1465 1464 1463 1462 1461 1460 1459 1458 1457 1456 1455 1454 1453 1453 1452 1451 1450 1450 1449 1448 1448
1477 1477 1476 1476 1475 1475 1474 1473 1473 1473 1472 1472 1471 1471 1469 1469 1468 1467 1466 1465 1464 1463 1462 1461 1460 1459 1458 1457 1456 1455 1454 1453 1452 1450 1450 1449 1448 1447 1446 1445 1445 1444 1443
1475 1474 1474 1473 1473 1472 1471 1471 1470 1470 1469 1469 1468 1468 1467 1466 1465 1464 1463 1462 1461 1460 1459 1458 1457 1456 1455 1454 1453 1452 1451 1449 1448 1447 1446 1445 1444 1443 1442 1441 1441 1440 1439
1472 1472 1471 1471 1470 1470 1469 1469 1468 1467 1466 1465 1465 1464 1464 1463 1462 1460 1459 1458 1457 1456 1455 1455 1454 1453 1452 1450 1449 1448 1447 1446 1444 1443 1442 1441 1440 1439 1438 1437 1436 1436 1436
1469 1469 1469 1468 1468 1467 1467 1467 1466 1465 1464 1463 1462 1461 1461 1460 1459 1458 1456 1455 1454 1453 1452 1451 1451 1450 1448 1447 1446 1444 1443 1442 1440 1439 1438 1436 1435 1435 1434 1433 1432 1432 1432
1466 1466 1466 1466 1465 1465 1464 1464 1463 1463 1462 1461 1460 1459 1458 1457 1456 1455 1454 1452 1452 1451 1450 1449 1448 1447 1445 1444 1442 1441 1440 1438 1437 1435 1434 1433 1432 1431 1430 1429 1429 1429 1428
1464 1464 1464 1463 1463 1463 1462 1462 1461 1461 1460 1459 1458 1457 1456 1455 1454 1453 1451 1450 1449 1448 1447 1446 1445 1443 1442 1441 1439 1438 1436 1435 1433 1432 1430 1429 1428 1427 1426 1426 1425 1426 1426
1462 1462 1461 1461 1460 1460 1460 1459 1459 1458 1458 1457 1456 1455 1454 1453 1452 1451 1449 1448 1447 1446 1444 1443 1442 1441 1439 1438 1436 1434 1433 1431 1430 1428 1427 1426 1425 1424 1423 1422 1422 1422 1422
1460 1460 1459 1459 1458 1458 1458 1457 1457 1456 1455 1455 1454 1453 1451 1450 1449 1448 1447 1445 1444 1443 1442 1441 1439 1438 1436 1435 1433 1431 1429 1428 1426 1425 1424 1423 1422 1422 1421 1420 1419 1419 1419
1458 1457 1457 1456 1456 1456 1455 1455 1454 1454 1453 1453 1452 1451 1449 1448 1447 1446 1444 1443 1442 1440 1439 1438 1437 1435 1434 1432 1430 1428 1426 1424 1424 1422 1421 1420 1419 1418 1418 1417 1417 1417 1417
1456 1455 1455 1454 1453 1453 1453 1452 1452 1452 1451 1450 1449 1448 1447 1446 1444 1443 1441 1440 1439 1437 1436 1435 1433 1432 1430 1429 1427 1425 1423 1422 1420 1419 1418 1417 1417 1416 1415 1415 1415 1415 1415
1454 1453 1453 1452 1451 1451 1451 1450 1450 1450 1449 1448 1447 1445 1444 1443 1442 1441 1439 1438 1436 1435 1434 1432 1431 1429 1427 1426 1424 1422 1421 1419 1418 1416 1415 1415 1414 1414 1413 1413 1413 1413 1413